TimeMST,TemperatureF,Dew PointF,Humidity,Sea Level PressureIn,VisibilityMPH,Wind Direction,Wind SpeedMPH,Gust SpeedMPH,PrecipitationIn,Events,Conditions,WindDirDegrees,DateUTC
12:15 AM,5.0,3.2,92,30.33,10.0,Calm,Calm,-,N/A,,Clear,0,2013-01-23 07:15:00
12:35 AM,5.0,-0.4,78,30.32,10.0,Calm,Calm,-,N/A,,Clear,0,2013-01-23 07:35:00
12:55 AM,3.2,1.4,92,30.31,10.0,SW,4.6,-,N/A,,Clear,230,2013-01-23 07:55:00
1:15 AM,5.0,1.4,85,30.31,10.0,Calm,Calm,-,N/A,,Clear,0,2013-01-23 08:15:00
1:35 AM,5.0,1.4,85,30.31,10.0,East,3.5,-,N/A,,Clear,90,2013-01-23 08:35:00
1:55 AM,3.2,1.4,92,30.32,10.0,West,4.6,-,N/A,,Clear,260,2013-01-23 08:55:00
2:15 AM,5.0,3.2,92,30.33,7.0,Calm,Calm,-,N/A,,Clear,0,2013-01-23 09:15:00
2:35 AM,1.4,-2.2,85,30.33,10.0,Calm,Calm,-,N/A,,Clear,0,2013-01-23 09:35:00
2:55 AM,1.4,-0.4,92,30.33,10.0,Calm,Calm,-,N/A,,Clear,0,2013-01-23 09:55:00
3:15 AM,1.4,-0.4,92,30.32,10.0,Calm,Calm,-,N/A,,Clear,0,2013-01-23 10:15:00
3:35 AM,3.2,1.4,92,30.31,10.0,ESE,3.5,-,N/A,,Clear,120,2013-01-23 10:35:00
3:55 AM,5.0,1.4,85,30.31,10.0,Calm,Calm,-,N/A,,Clear,0,2013-01-23 10:55:00
4:15 AM,5.0,1.4,85,30.31,10.0,NNW,3.5,-,N/A,,Clear,340,2013-01-23 11:15:00
4:35 AM,5.0,1.4,85,30.31,10.0,Calm,Calm,-,N/A,,Clear,0,2013-01-23 11:35:00
4:55 AM,5.0,3.2,92,30.31,7.0,Calm,Calm,-,N/A,,Clear,0,2013-01-23 11:55:00
5:15 AM,5.0,1.4,85,30.31,7.0,Calm,Calm,-,N/A,,Clear,0,2013-01-23 12:15:00
5:35 AM,5.0,3.2,92,30.31,10.0,ESE,4.6,-,N/A,,Clear,110,2013-01-23 12:35:00
5:55 AM,5.0,3.2,92,30.30,10.0,East,3.5,-,N/A,,Clear,90,2013-01-23 12:55:00
6:15 AM,6.8,3.2,85,30.30,10.0,Calm,Calm,-,N/A,,Clear,0,2013-01-23 13:15:00
6:35 AM,3.2,-0.4,85,30.31,10.0,Calm,Calm,-,N/A,,Clear,0,2013-01-23 13:35:00
6:55 AM,5.0,3.2,92,30.31,10.0,Calm,Calm,-,N/A,,Clear,0,2013-01-23 13:55:00
7:15 AM,5.0,3.2,92,30.31,10.0,Calm,Calm,-,N/A,,Clear,0,2013-01-23 14:15:00
7:35 AM,6.8,3.2,85,30.30,10.0,Calm,Calm,-,N/A,,Clear,0,2013-01-23 14:35:00
7:55 AM,6.8,3.2,85,30.30,7.0,Calm,Calm,-,N/A,,Clear,0,2013-01-23 14:55:00
8:15 AM,6.8,3.2,85,30.30,7.0,Calm,Calm,-,N/A,,Clear,0,2013-01-23 15:15:00
8:35 AM,8.6,3.2,79,30.30,10.0,Calm,Calm,-,N/A,,Clear,0,2013-01-23 15:35:00
8:55 AM,8.6,5.0,85,30.31,10.0,Calm,Calm,-,N/A,,Clear,0,2013-01-23 15:55:00
9:15 AM,10.4,6.8,85,30.32,10.0,Calm,Calm,-,N/A,,Clear,0,2013-01-23 16:15:00
9:35 AM,12.2,8.6,85,30.31,7.0,Calm,Calm,-,N/A,,Clear,0,2013-01-23 16:35:00
9:55 AM,14.0,10.4,86,30.31,10.0,Calm,Calm,-,N/A,,Clear,0,2013-01-23 16:55:00
10:15 AM,15.8,10.4,79,30.31,10.0,Calm,Calm,-,N/A,,Clear,0,2013-01-23 17:15:00
10:35 AM,14.0,10.4,86,30.31,7.0,Calm,Calm,-,N/A,,Clear,0,2013-01-23 17:35:00
10:55 AM,14.0,8.6,79,30.30,7.0,Calm,Calm,-,N/A,,Clear,0,2013-01-23 17:55:00
11:15 AM,15.8,8.6,73,30.30,10.0,Calm,Calm,-,N/A,,Clear,0,2013-01-23 18:15:00
11:35 AM,17.6,10.4,73,30.30,10.0,Calm,Calm,-,N/A,,Clear,0,2013-01-23 18:35:00
11:55 AM,19.4,10.4,68,30.29,10.0,Calm,Calm,-,N/A,,Clear,0,2013-01-23 18:55:00
12:15 PM,21.2,12.2,68,30.27,10.0,East,3.5,-,N/A,,Clear,90,2013-01-23 19:15:00
12:35 PM,21.2,12.2,68,30.27,10.0,WNW,4.6,-,N/A,,Clear,290,2013-01-23 19:35:00
12:55 PM,21.2,12.2,68,30.27,10.0,SW,4.6,-,N/A,,Clear,230,2013-01-23 19:55:00
1:15 PM,23.0,14.0,68,30.25,10.0,South,3.5,-,N/A,,Clear,180,2013-01-23 20:15:00
1:35 PM,28.4,15.8,59,30.24,10.0,Calm,Calm,-,N/A,,Clear,0,2013-01-23 20:35:00
1:55 PM,30.2,17.6,60,30.22,10.0,Calm,Calm,-,N/A,,Clear,0,2013-01-23 20:55:00
2:15 PM,26.6,15.8,64,30.22,10.0,Calm,Calm,-,N/A,,Clear,0,2013-01-23 21:15:00
2:35 PM,28.4,17.6,64,30.22,10.0,ESE,3.5,-,N/A,,Clear,120,2013-01-23 21:35:00
2:55 PM,32.0,19.4,60,30.22,10.0,Calm,Calm,-,N/A,,Clear,0,2013-01-23 21:55:00
3:15 PM,32.0,19.4,60,30.22,10.0,SW,4.6,-,N/A,,Clear,230,2013-01-23 22:15:00
3:35 PM,28.4,17.6,64,30.22,10.0,Calm,Calm,-,N/A,,Clear,0,2013-01-23 22:35:00
3:55 PM,32.0,19.4,60,30.21,10.0,SW,5.8,-,N/A,,Clear,230,2013-01-23 22:55:00
4:15 PM,35.6,19.4,52,30.21,10.0,SW,6.9,10.4,N/A,,Clear,220,2013-01-23 23:15:00
4:35 PM,39.2,17.6,42,30.21,10.0,SW,6.9,-,N/A,,Clear,220,2013-01-23 23:35:00
4:55 PM,37.4,17.6,45,30.22,10.0,SW,9.2,-,N/A,,Clear,230,2013-01-23 23:55:00
5:15 PM,42.8,17.6,36,30.22,10.0,SW,5.8,-,N/A,,Clear,230,2013-01-24 00:15:00
5:35 PM,44.6,19.4,37,30.21,10.0,WSW,13.8,17.3,N/A,,Clear,240,2013-01-24 00:35:00
5:55 PM,44.6,19.4,37,30.21,10.0,South,5.8,-,N/A,,Clear,170,2013-01-24 00:55:00
6:15 PM,42.8,21.2,42,30.21,10.0,Calm,Calm,-,N/A,,Clear,0,2013-01-24 01:15:00
6:35 PM,37.4,23.0,56,30.22,10.0,East,5.8,-,N/A,,Clear,90,2013-01-24 01:35:00
6:55 PM,32.0,23.0,69,30.22,10.0,SSE,3.5,-,N/A,,Clear,160,2013-01-24 01:55:00
7:15 PM,30.2,19.4,64,30.22,10.0,Calm,Calm,-,N/A,,Clear,0,2013-01-24 02:15:00
7:35 PM,30.2,19.4,64,30.22,10.0,Calm,Calm,-,N/A,,Clear,0,2013-01-24 02:35:00
7:55 PM,28.4,19.4,69,30.22,10.0,Calm,Calm,-,N/A,,Clear,0,2013-01-24 02:55:00
8:15 PM,26.6,17.6,69,30.22,10.0,Calm,Calm,-,N/A,,Clear,0,2013-01-24 03:15:00
8:35 PM,28.4,17.6,64,30.22,10.0,Calm,Calm,-,N/A,,Clear,0,2013-01-24 03:35:00
8:55 PM,23.0,15.8,74,30.22,10.0,Calm,Calm,-,N/A,,Clear,0,2013-01-24 03:55:00
9:15 PM,28.4,19.4,69,30.22,10.0,Calm,Calm,-,N/A,,Clear,0,2013-01-24 04:15:00
9:35 PM,28.4,19.4,69,30.23,10.0,Calm,Calm,-,N/A,,Clear,0,2013-01-24 04:35:00
9:55 PM,26.6,19.4,74,30.23,10.0,Calm,Calm,-,N/A,,Clear,0,2013-01-24 04:55:00
10:15 PM,24.8,17.6,74,30.22,10.0,Calm,Calm,-,N/A,,Clear,0,2013-01-24 05:15:00
10:55 PM,26.6,17.6,69,30.23,10.0,WSW,3.5,-,N/A,,Clear,250,2013-01-24 05:55:00
11:15 PM,21.2,15.8,80,30.23,10.0,Calm,Calm,-,N/A,,Clear,0,2013-01-24 06:15:00
11:35 PM,24.8,19.4,80,30.23,10.0,Calm,Calm,-,N/A,,Scattered Clouds,0,2013-01-24 06:35:00
11:55 PM,23.0,17.6,80,30.23,10.0,Calm,Calm,-,N/A,,Scattered Clouds,0,2013-01-24 06:55:00